Theta_e
315 315 316 321 324 322 322 323 321 323 321 318 318 321 322 321 322 322 321 323 320 324 327 328 329 330 331 332 331 329 328 328 328 333 335 335 333 329 324 321 322 323 323 322 321 319 315 312 312
315 315 317 322 321 319 318 320 324 323 319 317 317 318 320 322 320 320 321 322 320 320 326 325 325 325 326 327 328 327 326 327 331 332 333 333 326 321 323 323 324 323 322 320 317 312 312 311 309
315 315 320 321 320 319 318 320 321 319 317 318 320 318 320 322 320 320 321 322 321 318 323 322 322 323 325 327 328 329 332 334 333 332 333 332 320 320 321 322 321 319 318 315 312 311 308 305 305
315 318 318 320 319 320 319 319 319 319 317 316 318 320 318 320 320 319 319 320 321 320 318 317 318 321 324 328 330 331 334 334 334 334 331 318 318 319 318 316 316 314 313 312 310 305 304 304 305
316 317 318 318 318 318 318 317 317 318 318 318 317 321 318 318 317 317 318 318 321 320 318 315 315 317 322 326 331 332 334 332 331 324 316 315 316 315 314 313 312 312 311 308 304 304 304 305 307
318 319 319 320 319 318 318 317 317 318 318 317 317 318 319 318 317 317 316 317 319 321 319 318 316 316 317 326 330 325 317 317 316 315 313 313 314 313 312 311 311 309 305 304 304 304 306 307 307
318 319 319 319 320 321 320 315 318 319 318 319 317 320 319 318 317 317 316 316 317 320 320 320 319 316 317 319 319 319 316 316 314 313 313 313 313 311 310 309 306 304 304 303 304 306 307 307 307
319 320 321 321 320 319 319 316 316 317 319 317 316 320 320 318 317 317 317 316 316 317 318 318 319 317 316 316 315 315 313 313 313 313 313 312 311 309 307 305 304 303 303 304 306 306 306 306 306
317 321 320 319 319 318 317 318 315 316 316 315 316 318 318 317 317 317 317 317 317 316 316 316 317 317 315 315 314 314 314 313 313 313 312 310 309 308 306 304 303 303 303 305 306 305 305 305 306
319 320 319 318 318 317 317 316 317 316 317 317 316 316 317 317 317 317 316 316 316 317 317 316 316 317 317 315 314 314 313 313 313 313 311 309 308 306 304 303 303 303 304 305 305 305 305 305 305
318 319 318 316 315 314 315 315 315 316 317 317 317 316 316 316 316 316 316 316 316 316 316 317 316 316 317 316 314 314 313 313 313 312 310 308 307 306 304 303 303 303 304 304 304 304 304 304 305
318 317 317 317 315 315 316 316 316 315 316 316 316 315 315 315 315 315 315 315 316 316 316 316 316 316 316 316 315 314 313 313 313 312 310 308 306 305 304 303 303 303 303 304 304 304 304 304 304
317 317 316 316 315 315 315 316 316 316 315 315 315 314 314 314 314 314 314 314 315 315 315 315 316 316 316 316 316 315 314 313 313 312 310 309 307 307 305 303 302 302 303 303 304 304 304 304 304
314 314 314 314 314 314 314 315 313 315 314 314 313 313 313 313 314 314 314 314 315 315 315 315 315 315 316 316 315 315 315 314 313 312 311 309 308 306 305 304 303 302 302 303 303 303 303 304 304
313 314 315 314 313 314 312 314 314 314 314 313 313 313 313 313 313 313 313 313 313 314 315 315 315 315 315 315 315 315 315 315 314 313 312 310 309 307 306 304 302 302 302 302 303 303 303 303 303
313 313 315 315 311 312 313 315 316 314 311 313 313 314 314 313 313 312 313 313 313 313 314 314 315 315 314 315 315 315 315 315 314 313 312 310 309 307 305 304 303 302 301 302 302 302 303 303 302
313 315 315 314 312 312 314 315 315 313 312 313 313 313 313 313 313 312 312 313 312 313 313 313 313 314 315 314 314 314 315 315 314 314 313 312 309 307 306 304 303 301 301 301 301 301 302 302 302
319 316 314 313 314 312 312 313 313 312 312 312 313 313 313 312 313 312 312 312 313 313 313 313 313 313 313 313 313 313 313 314 314 314 314 313 311 308 305 304 303 302 300 300 301 301 301 301 301
313 313 314 314 314 313 313 313 313 312 312 312 313 313 313 313 313 312 312 312 312 313 313 313 313 312 312 312 312 312 313 313 313 314 314 313 312 310 307 305 303 301 300 300 300 300 300 300 300
312 313 314 315 313 310 313 313 313 314 313 313 312 313 313 313 313 312 313 313 313 312 312 311 311 311 311 311 311 311 311 312 312 312 313 313 313 311 309 306 304 302 301 300 299 300 300 299 300
312 312 314 314 312 312 312 317 315 315 312 312 311 311 312 313 313 312 312 313 313 312 312 312 312 312 311 310 310 310 309 310 310 311 312 312 312 311 310 307 304 302 301 300 300 300 299 300 300
313 313 311 311 312 316 311 317 317 316 315 314 313 312 312 312 312 312 312 311 310 311 311 311 310 310 310 309 309 308 308 308 309 308 309 310 311 311 311 308 305 302 300 300 300 299 299 299 300
313 309 310 310 312 311 314 313 318 314 316 314 313 312 312 312 310 309 307 309 309 310 311 311 311 311 310 309 307 306 307 306 306 305 305 306 307 308 310 309 306 304 301 300 299 299 299 299 299
308 310 310 309 311 315 317 315 317 315 314 313 314 313 313 309 307 306 305 307 307 308 309 310 310 310 309 309 308 306 305 305 304 304 304 303 303 305 306 308 306 303 301 300 300 299 298 298 298
309 312 317 320 320 320 314 314 315 316 315 312 312 310 307 305 304 305 306 306 305 306 308 308 308 308 308 308 306 305 305 303 303 303 302 302 302 302 304 305 306 305 302 300 300 299 298 298 297
312 314 319 323 321 320 316 315 315 314 312 310 307 305 304 304 303 301 301 302 303 304 304 304 306 307 306 305 305 304 304 303 302 302 303 302 302 303 302 302 303 303 301 300 299 299 298 298 297
311 313 312 314 316 318 314 314 315 315 310 307 307 307 305 303 302 302 301 301 302 302 301 301 301 303 304 305 305 305 304 303 302 301 300 300 301 303 301 301 302 302 302 300 299 299 298 297 297
310 310 314 312 315 317 314 314 315 315 313 308 306 304 302 300 300 299 302 301 299 299 298 299 299 299 299 300 302 303 303 303 301 299 300 299 299 299 300 301 300 300 300 300 299 299 298 297 296
312 310 309 310 313 316 317 316 313 312 309 306 303 301 299 298 296 295 294 296 298 298 298 297 298 298 298 297 298 299 301 302 301 301 298 297 298 298 299 299 300 299 299 300 300 299 299 298 297
311 313 314 317 317 314 314 314 312 311 306 300 300 299 296 294 293 293 292 292 292 293 295 297 296 296 296 297 296 296 297 299 301 301 300 298 296 296 297 297 298 298 298 299 299 299 298 298 297
Wind_Speed
5 4 4 3 4 3 3 1 2 4 2 1 4 4 3 6 4 5 3 5 8 21 22 22 21 21 19 18 17 15 14 13 12 11 10 10 10 10 8 8 8 8 8 7 6 6 6 6 6
4 3 2 1 4 3 3 0 3 2 1 2 5 5 6 6 8 9 6 6 9 19 23 22 22 20 19 19 18 16 14 13 13 12 11 11 11 9 8 8 9 9 8 7 7 7 7 6 6
1 1 2 1 2 3 3 2 1 2 3 4 3 4 3 3 5 4 4 6 11 17 23 22 22 21 19 18 18 16 15 15 13 12 13 13 10 9 9 9 9 9 9 8 8 7 6 5 4
1 1 2 4 6 6 5 5 5 9 2 5 4 6 5 10 5 6 5 7 12 16 21 22 22 22 21 20 18 18 17 17 16 16 16 13 11 10 10 10 10 10 9 9 8 6 4 3 2
2 1 2 3 4 4 6 9 6 4 3 4 5 3 5 8 10 12 10 7 13 16 20 21 23 23 22 22 22 23 21 21 21 18 14 12 11 11 11 11 11 9 8 8 7 4 3 2 1
0 1 3 4 3 4 6 5 4 5 3 4 4 7 5 5 6 8 10 9 13 16 19 21 22 22 22 24 25 24 20 19 18 17 15 14 13 12 12 11 10 9 8 7 5 4 3 2 1
1 2 2 4 4 4 2 2 3 3 4 5 3 4 4 6 5 6 7 10 14 17 20 22 23 24 25 25 26 25 22 20 20 18 16 15 14 13 13 11 11 10 8 8 6 5 4 3 3
3 2 3 5 3 4 3 3 3 6 4 4 6 5 4 6 11 10 9 10 14 19 21 23 24 26 27 28 27 25 23 21 20 19 18 16 15 14 13 12 12 11 11 10 9 7 6 5 4
4 4 5 4 5 2 4 4 4 6 10 9 10 15 16 20 18 16 14 15 17 20 23 24 25 27 29 30 28 26 25 24 22 20 20 18 17 15 15 14 13 13 13 11 10 8 6 5 4
5 4 5 4 5 5 4 6 9 7 15 18 19 22 23 22 22 19 20 19 21 23 24 25 27 28 29 31 30 29 28 27 26 24 23 22 21 19 17 17 16 15 14 13 10 9 7 7 6
5 6 6 7 13 9 8 9 7 12 13 17 18 17 15 21 23 26 25 25 25 23 27 27 28 30 31 32 32 32 31 30 29 27 26 24 23 22 21 21 20 19 17 15 13 11 10 8 7
6 15 12 6 6 6 8 7 11 17 31 29 25 26 21 25 29 28 27 26 25 26 27 29 30 31 32 33 34 34 34 33 32 30 29 28 27 26 25 24 23 22 21 18 16 14 12 10 8
9 11 10 13 13 17 16 22 18 25 31 30 26 25 25 23 23 24 25 26 26 29 29 30 31 33 34 35 36 36 36 36 35 34 32 30 30 29 27 27 26 25 23 21 19 17 15 12 10
3 9 14 13 17 17 11 26 3 17 16 20 20 24 22 20 22 21 21 22 24 25 27 30 34 35 36 37 38 38 38 38 38 37 35 34 33 32 30 30 29 28 26 24 21 19 17 14 12
6 12 16 15 10 9 6 11 14 25 15 22 23 18 21 31 33 32 32 32 29 27 22 27 30 34 38 40 40 41 41 41 42 40 39 38 37 36 34 33 32 31 29 27 24 22 19 16 14
6 4 9 2 7 2 6 17 17 15 8 17 25 33 34 32 29 25 31 31 29 31 30 26 26 31 36 40 42 43 44 44 45 43 42 42 41 39 38 37 36 34 32 30 28 25 23 20 17
5 11 12 10 8 3 9 13 11 15 23 37 35 34 32 31 31 23 23 21 19 21 23 27 30 31 33 37 41 44 46 47 48 48 47 46 45 43 42 41 39 37 36 34 32 29 26 23 20
14 11 10 10 9 8 12 22 21 34 23 37 37 35 25 25 25 19 18 16 14 13 14 17 21 27 33 36 41 46 48 50 51 52 51 50 47 47 46 44 43 41 41 39 36 32 29 25 23
10 14 19 19 19 20 19 18 18 31 29 33 35 28 19 17 17 20 18 14 12 10 10 12 16 18 25 33 39 44 48 51 53 54 53 53 52 51 50 49 47 46 45 42 38 37 33 31 27
14 16 19 16 10 4 18 23 23 21 27 30 23 20 14 13 13 17 18 18 16 14 15 17 18 18 21 27 32 39 43 49 53 55 58 58 57 56 55 53 52 50 48 46 44 42 39 36 32
11 13 17 19 13 14 14 15 4 6 9 16 11 11 11 10 19 21 19 19 20 20 18 17 16 16 20 23 28 33 39 45 48 53 59 62 61 60 58 56 54 53 52 51 48 46 44 40 38
15 11 14 12 6 9 9 13 7 11 13 11 3 3 5 9 12 12 13 19 20 21 22 21 19 16 17 19 24 30 36 41 46 48 52 56 61 63 61 59 58 56 55 54 51 48 47 45 43
4 2 1 2 8 9 5 7 4 5 11 6 3 8 10 15 12 10 23 21 20 19 21 21 21 21 20 19 19 23 30 34 37 41 42 47 52 56 63 63 62 61 59 56 55 53 51 49 47
2 2 2 1 4 7 5 7 5 4 2 2 12 18 23 24 20 17 19 22 23 23 23 21 20 20 20 19 17 18 23 27 30 35 40 43 45 49 53 61 63 63 62 60 59 56 53 51 50
4 4 5 6 5 10 4 10 7 10 12 8 16 25 28 26 25 27 31 32 31 31 27 23 23 22 20 18 16 17 18 20 26 30 34 37 42 45 47 49 60 67 65 62 60 59 55 53 52
8 8 7 6 12 20 12 17 7 3 8 16 21 20 20 23 25 26 26 27 27 28 29 29 26 22 24 23 19 17 18 21 24 27 30 35 39 40 41 44 48 63 66 64 62 61 58 56 54
5 6 5 8 14 12 17 29 21 18 8 14 17 21 21 20 21 22 24 27 28 29 28 28 29 27 26 27 27 24 22 21 23 25 30 33 35 35 37 39 42 48 63 66 65 64 62 59 56
5 3 9 6 9 19 20 22 16 15 8 7 10 12 13 17 20 21 20 23 25 26 28 28 29 30 30 29 28 28 27 26 24 25 28 30 33 35 34 35 39 44 51 64 67 65 64 62 58
9 8 7 7 8 12 17 17 15 5 8 6 8 8 10 13 14 16 17 21 23 26 28 29 32 33 33 33 31 31 30 28 27 27 28 30 30 31 34 36 35 40 46 52 64 67 66 63 60
16 21 20 9 10 12 15 21 21 7 7 10 6 5 6 9 12 15 16 18 22 25 27 29 30 31 33 34 34 32 31 31 29 28 27 27 30 30 32 35 36 38 43 45 53 64 67 65 63
Wind_Direction
266 278 303 323 253 260 266 213 301 257 233 195 157 217 302 302 287 329 341 209 197 196 196 196 198 197 194 190 191 191 192 195 200 196 193 197 201 210 215 225 240 255 274 287 291 297 299 299 299
269 272 301 267 260 277 61 289 238 338 324 218 218 237 257 287 259 274 283 218 192 191 199 201 204 205 203 199 197 198 202 204 203 204 207 204 217 215 218 232 239 250 258 271 282 287 290 293 293
258 222 261 291 267 318 342 202 7 354 284 231 246 243 278 250 262 250 271 221 196 193 201 205 206 207 206 202 202 198 194 204 211 213 215 217 228 223 227 235 243 251 260 269 272 273 279 280 282
155 113 62 260 277 275 267 310 284 298 251 223 260 260 252 246 263 249 285 242 209 200 201 206 206 208 206 205 204 202 197 206 203 204 216 227 229 227 231 238 245 251 257 260 263 266 258 254 256
160 182 218 250 269 274 268 292 288 273 277 214 207 261 255 275 268 270 270 251 223 213 206 207 207 208 208 206 203 202 202 207 212 223 234 236 234 238 249 250 251 253 248 249 250 238 238 237 247
174 264 253 291 296 280 277 272 278 259 250 227 225 260 258 289 304 282 268 247 226 220 214 212 213 214 212 208 210 217 223 226 229 234 232 233 236 242 247 250 250 246 244 244 235 222 221 232 256
197 240 295 285 287 283 234 196 225 277 255 247 231 260 256 287 302 308 272 241 229 220 218 219 218 216 215 218 222 226 230 230 231 231 231 232 234 235 233 231 234 237 236 225 222 224 231 242 255
151 222 210 219 244 271 202 208 222 246 298 239 208 241 266 291 300 290 273 252 234 226 225 224 223 221 219 222 227 229 235 234 234 236 237 238 235 230 228 228 228 225 217 214 215 221 231 248 263
162 229 244 242 195 223 191 244 215 255 264 247 228 244 264 281 283 282 267 253 242 235 230 228 226 225 223 225 228 229 232 232 233 235 236 236 236 234 232 228 224 219 218 218 220 225 235 250 258
215 237 254 231 219 255 257 239 280 267 262 261 265 261 272 274 269 271 268 262 252 245 241 234 230 229 227 227 229 230 231 230 231 231 232 228 228 229 229 228 224 221 221 221 224 233 239 244 247
193 241 245 237 247 259 274 262 252 265 276 268 271 290 276 278 268 270 268 266 264 259 247 242 236 232 230 230 228 229 229 229 231 231 232 230 228 227 224 225 222 220 220 224 226 228 232 236 241
235 244 241 265 241 248 258 274 261 247 263 278 283 282 274 272 276 274 271 267 263 261 253 247 242 238 236 233 231 232 233 234 234 233 230 229 228 228 227 226 222 220 219 222 225 228 228 229 230
239 263 258 256 262 265 274 263 265 268 269 282 280 284 288 277 277 276 275 270 261 255 251 249 246 242 239 237 235 235 235 235 236 234 232 231 230 231 230 228 225 223 222 223 222 222 223 224 225
328 280 278 277 265 257 253 271 253 271 283 285 284 287 288 293 299 290 286 285 278 270 258 250 247 245 244 242 240 239 238 238 237 236 234 231 231 231 231 230 227 225 223 223 222 223 221 221 223
299 297 292 261 261 233 228 266 231 269 283 286 287 283 292 293 290 286 289 289 287 283 277 257 251 248 246 246 243 242 242 240 240 238 235 233 231 231 229 229 229 227 225 224 224 224 224 222 222
275 264 284 308 173 210 197 273 288 301 291 289 287 288 290 287 283 287 289 289 284 280 275 271 260 248 245 244 244 245 244 242 242 241 239 236 233 231 230 230 226 226 227 226 225 223 221 221 221
229 273 254 297 215 144 212 285 273 294 298 289 286 284 284 292 295 293 294 302 295 282 276 269 262 257 250 246 244 243 244 245 244 242 240 238 236 233 232 231 229 227 225 225 225 223 222 221 220
282 266 256 266 293 252 267 272 282 284 278 277 282 282 293 292 307 326 333 326 319 301 286 280 272 262 256 250 245 244 243 244 243 244 243 240 238 236 234 232 230 227 226 223 223 223 222 219 220
284 272 281 279 283 291 287 285 280 280 276 266 274 284 295 295 335 357 14 13 355 343 321 298 282 273 261 256 250 245 246 246 244 244 245 243 241 237 234 234 231 227 227 227 224 222 220 218 216
258 270 274 282 291 291 295 296 282 266 264 264 276 286 291 317 356 21 29 24 22 6 344 327 308 287 273 263 257 253 253 250 250 247 245 242 240 239 236 234 233 230 227 225 223 222 218 217 216
246 261 280 284 314 281 308 287 274 257 250 272 262 269 290 340 8 19 39 38 30 23 18 10 3 348 313 289 276 264 253 252 252 251 250 245 241 239 238 236 236 233 230 228 226 225 222 222 217
271 264 258 277 299 298 16 297 301 269 284 270 17 332 297 4 357 13 27 19 24 19 17 16 9 354 330 308 287 272 267 264 263 259 257 255 248 242 239 236 235 235 234 231 228 227 227 223 222
256 46 222 228 275 304 262 265 356 169 266 309 53 20 356 329 332 40 21 27 24 19 15 11 8 3 357 341 314 290 278 271 270 268 265 260 256 248 241 237 234 234 233 233 232 227 225 227 225
123 293 292 232 257 257 300 238 19 16 134 107 358 349 350 25 39 25 24 22 19 15 15 10 2 1 360 360 350 325 303 292 274 268 269 266 263 257 250 242 237 237 235 231 232 230 228 228 229
171 273 295 270 243 269 344 285 250 299 291 335 347 10 31 30 23 17 11 10 9 7 5 2 2 358 353 352 351 341 324 304 291 277 274 270 269 264 261 254 241 237 236 234 232 232 229 228 228
206 235 239 267 274 288 282 265 270 88 341 34 52 60 40 32 24 16 12 10 5 2 359 360 359 357 355 351 345 338 329 316 301 290 284 278 273 274 271 264 255 241 237 235 234 234 232 228 228
149 210 257 272 274 281 272 270 272 238 73 58 41 23 19 18 15 11 5 3 359 356 356 353 351 350 349 349 345 340 331 318 308 299 291 283 279 278 272 265 259 253 243 237 235 234 234 230 228
244 331 248 226 255 252 263 267 260 286 343 63 33 26 12 4 5 1 351 346 347 347 346 344 344 343 344 343 345 344 340 325 310 299 292 288 283 279 272 266 262 257 248 239 236 235 235 233 230
250 250 238 267 248 251 255 260 271 3 70 19 25 23 11 14 16 9 0 356 347 344 345 345 340 338 338 341 341 341 343 340 327 309 300 293 287 281 275 269 262 256 252 246 238 236 236 235 232
263 259 256 249 240 227 249 258 283 312 73 66 21 20 19 22 4 354 350 353 353 348 345 341 341 340 338 337 337 338 338 343 340 330 313 299 292 285 279 272 265 258 253 249 246 238 236 235 232